Showing default

COSMOS 81, 1571

Orbit data source: Space-Track

COSMOS 81, 1571 is a payload satellite owned by OKB-10 (CIS) in LEO that was launched on Fri, 03 Sep 1965 UTC via a KOSMOS 65S3 launch vehicle from the Tyuratam Missile And Space Complex (TTMTR). Payload-class satellites include a variety of spacecraft equipped with specific instruments for various scientific and technological missions. These include communications satellites like Starlink; space stations such as the ISS; scientific satellites like the Hubble; Earth observation satellites from companies like Planet Labs, Umbra, and HawkEye 360; GPS; miniature CubeSats for education and research; and military/defense satellites.

Loading next visibility...
Identifier
1571, 1965-070B
Orbit
LEO
Country
Flag of CISCIS
Related business
Manufacturer
OKB-10
Mission
Defense Communications
Bus & Motor
STRELA-1 11F610, Unknown motor
Mass
50 kg wet, 50 kg dry
Launch date (UTC)
1965-09-03 (60 years ago)
Launch vehicle
KOSMOS 65S3
Launch site
Tyuratam Missile And Space Complex (TTMTR)
Object type
Payload
Rocket body
Debris
Shape & HBR
Poly, 0.4 m
Radar Cross Section
0.731 m², Medium (>0.1 m² and < 1m²)

Expand to show TLE details & history
Last TLE update: 5 hours ago

TLE from 5 hours ago
0 COSMOS 81
1 01571U 65070B   25261.29476477 -.00000104  00000-0 -52488-4 0  9992
2 01571  56.0586 213.6212 0089902  83.0058  66.0109 12.48863384738653
Epoch: 2025-09-18T07:04Z
TLE epoch observation values (Epoch: 2025-09-18T07:04:27.676Z)
Latitude
24.59131°
Longitude
-87.80051°
Altitude
1,442.258 km
Speed
7.156 km/s
True Right ascension
01h 03m 05s
True Declination
24° 28' 22"
Sunlit
Object was in full shadow at epoch
Visualization orbit readout
Latitude
Unknown
Longitude
Unknown
Altitude
Unknown
Speed
Unknown
Apparent Right ascension
Unknown
Apparent Declination
Unknown
Sunlit
N/A
Visualization observer readout
Local Sidereal Time
05:12:34
Azimuth
Unknown
Elevation
Unknown
Doppler factor
Unknown
Orbital elements
Apogee altitude
1,539.624 km
Perigee altitude
1,398.528 km
Semi-major axis
7,847.213 km
Eccentricity
0.00899
Inclination
56.0586°
RAAN
213.6212°
Arg. of periapsis
83.0058°
True anomaly
66.95639°
Mean anomaly
66.0109°
Eccentric anomaly
66.48322°
Mean motion
3.12227 °/min
Orbital period
115.3 mins
BSTAR
-0.000052488
Loading maneuver chart data...
Computing Atmospheric mass density...
Loading historical data...
Loading historical data...
Loading historical data...
Loading historical data...
Loading historical data...
Loading historical data...
Loading historical data...
Other satellites on launch #70 in the year 1965 (1965-09-03 UTC)

Documentation

Showing up to 5 results
|